| time (UTC) | temp F | wind direction | speed MPH | gust MPH | rain 1hr in | rain 24hr in | rain mn in | humidity % | barometer mb |
| 20260503172122 | 70 | 343 | 3.0 | 8.0 | 0.00 | 0.00 | 0.00 | 56 | 1014.8 |
| 20260503171122 | 68 | 319 | 3.0 | 8.0 | 0.00 | 0.00 | 0.00 | 57 | 1014.9 |
| 20260503170144 | 68 | 327 | 2.0 | 6.0 | 0.00 | 0.00 | 0.00 | 60 | 1014.9 |
| 20260503160122 | 65 | 319 | 2.0 | 10.0 | 0.00 | 0.00 | 0.00 | 64 | 1015.3 |
| 20260503150122 | 61 | 348 | 2.0 | 6.0 | 0.00 | 0.00 | 0.00 | 71 | 1015.5 |
| 20260503140143 | 55 | 314 | 0.0 | 0.0 | 0.00 | 0.00 | 0.00 | 83 | 1015.5 |
| 20260503131122 | 53 | 316 | 0.0 | 0.0 | 0.00 | 0.00 | 0.00 | 85 | 1015.4 |
| 20260503130122 | 53 | 315 | 0.0 | 0.0 | 0.00 | 0.00 | 0.00 | 85 | 1015.2 |
| 20260503120122 | 53 | 314 | 0.0 | 0.0 | 0.00 | 0.00 | 0.00 | 85 | 1015.1 |
| 20260503110122 | 54 | 314 | 0.0 | 0.0 | 0.00 | 0.00 | 0.00 | 84 | 1015.2 |
| 20260503100123 | 55 | 316 | 0.0 | 0.0 | 0.00 | 0.00 | 0.00 | 79 | 1015.3 |
| 20260503090122 | 56 | 333 | 0.0 | 3.0 | 0.00 | 0.00 | 0.00 | 79 | 1015.1 |
| 20260503081122 | 57 | 314 | 0.0 | 0.0 | 0.00 | 0.00 | 0.00 | 79 | 1015.0 |
| 20260503080122 | 57 | 332 | 0.0 | 2.0 | 0.00 | 0.00 | 0.00 | 78 | 1014.9 |
| 20260503072123 | 58 | 359 | 0.0 | 0.0 | 0.00 | 0.00 | 0.00 | 78 | 1014.7 |
| 20260503071122 | 58 | 359 | 0.0 | 0.0 | 0.00 | 0.00 | 0.00 | 78 | 1014.7 |
| 20260503060122 | 60 | 359 | 0.0 | 0.0 | 0.00 | 0.00 | 0.00 | 74 | 1014.4 |
| 20260503054122 | 61 | 359 | 0.0 | 0.0 | 0.00 | 0.00 | 0.00 | 73 | 1014.2 |
| 20260503053122 | 61 | 359 | 0.0 | 3.0 | 0.00 | 0.00 | 0.00 | 72 | 1014.3 |
| 20260503052123 | 62 | 359 | 0.0 | 0.0 | 0.00 | 0.00 | 0.00 | 71 | 1014.2 |
| 20260503051122 | 62 | 359 | 0.0 | 2.0 | 0.00 | 0.00 | 0.00 | 70 | 1014.2 |
| 20260503050145 | 62 | 359 | 0.0 | 2.0 | 0.00 | 0.00 | 0.00 | 69 | 1014.2 |
| 20260503045123 | 63 | 359 | 0.0 | 0.0 | 0.00 | 0.00 | 0.00 | 68 | 1014.2 |
| 20260503044122 | 63 | 359 | 0.0 | 0.0 | 0.00 | 0.00 | 0.00 | 67 | 1014.1 |
| 20260503043122 | 64 | 358 | 1.0 | 5.0 | 0.00 | 0.00 | 0.00 | 66 | 1014.1 |
| 20260503042122 | 65 | 346 | 0.0 | 3.0 | 0.00 | 0.00 | 0.00 | 63 | 1014.0 |
| 20260503041123 | 66 | 305 | 3.0 | 8.0 | 0.00 | 0.00 | 0.00 | 60 | 1014.0 |
| 20260503040122 | 66 | 328 | 2.0 | 6.0 | 0.00 | 0.00 | 0.00 | 60 | 1013.9 |
| 20260503035123 | 66 | 328 | 2.0 | 6.0 | 0.00 | 0.00 | 0.00 | 59 | 1013.9 |
| 20260503034123 | 66 | 337 | 3.0 | 10.0 | 0.00 | 0.00 | 0.00 | 58 | 1013.7 |
| 20260503033122 | 67 | 345 | 3.0 | 10.0 | 0.00 | 0.00 | 0.00 | 56 | 1013.6 |
| 20260503032123 | 69 | 313 | 4.0 | 16.0 | 0.00 | 0.00 | 0.00 | 50 | 1013.4 |
| 20260503031122 | 70 | 307 | 3.0 | 11.0 | 0.00 | 0.00 | 0.00 | 47 | 1013.4 |
| 20260503030122 | 70 | 298 | 3.0 | 13.0 | 0.00 | 0.00 | 0.00 | 47 | 1013.4 |
| 20260503025122 | 71 | 302 | 4.0 | 16.0 | 0.00 | 0.00 | 0.00 | 45 | 1013.3 |
| 20260503024143 | 71 | 306 | 2.0 | 13.0 | 0.00 | 0.00 | 0.00 | 44 | 1013.4 |
| 20260503023122 | 71 | 307 | 3.0 | 19.0 | 0.00 | 0.00 | 0.00 | 44 | 1013.4 |
| 20260503022123 | 72 | 292 | 2.0 | 11.0 | 0.00 | 0.00 | 0.00 | 43 | 1013.4 |
| 20260503021122 | 72 | 283 | 3.0 | 16.0 | 0.00 | 0.00 | 0.00 | 43 | 1013.4 |
| 20260503020122 | 72 | 312 | 3.0 | 14.0 | 0.00 | 0.00 | 0.00 | 42 | 1013.5 |
| 20260503015122 | 72 | 293 | 4.0 | 24.0 | 0.00 | 0.00 | 0.00 | 41 | 1013.4 |
| 20260503014122 | 73 | 300 | 3.0 | 11.0 | 0.00 | 0.00 | 0.00 | 40 | 1013.6 |
| 20260503013123 | 73 | 302 | 4.0 | 18.0 | 0.00 | 0.00 | 0.00 | 39 | 1013.6 |
| 20260503012122 | 74 | 310 | 3.0 | 18.0 | 0.00 | 0.00 | 0.00 | 38 | 1013.7 |
| 20260503011122 | 74 | 306 | 4.0 | 16.0 | 0.00 | 0.00 | 0.00 | 39 | 1013.9 |
| 20260503010122 | 74 | 305 | 4.0 | 19.0 | 0.00 | 0.00 | 0.00 | 41 | 1013.9 |
| 20260503005122 | 74 | 295 | 3.0 | 16.0 | 0.00 | 0.00 | 0.00 | 41 | 1013.9 |
| 20260503004122 | 75 | 301 | 2.0 | 14.0 | 0.00 | 0.00 | 0.00 | 39 | 1014.0 |
| 20260503003122 | 75 | 282 | 2.0 | 14.0 | 0.00 | 0.00 | 0.00 | 39 | 1014.0 |
| 20260503002122 | 75 | 300 | 4.0 | 19.0 | 0.00 | 0.00 | 0.00 | 39 | 1014.2 |
| 20260503001122 | 75 | 294 | 4.0 | 18.0 | 0.00 | 0.00 | 0.00 | 41 | 1014.3 |
| 20260503000122 | 74 | 286 | 3.0 | 14.0 | 0.00 | 0.00 | 0.00 | 44 | 1014.4 |
| 20260502235122 | 74 | 317 | 5.0 | 18.0 | 0.00 | 0.00 | 0.00 | 45 | 1014.5 |
| 20260502234122 | 75 | 292 | 4.0 | 18.0 | 0.00 | 0.00 | 0.00 | 44 | 1014.7 |
| 20260502233123 | 75 | 307 | 4.0 | 19.0 | 0.00 | 0.00 | 0.00 | 45 | 1014.8 |
| 20260502232123 | 76 | 305 | 3.0 | 18.0 | 0.00 | 0.00 | 0.00 | 43 | 1014.7 |
| 20260502231122 | 75 | 306 | 7.0 | 26.0 | 0.00 | 0.00 | 0.00 | 44 | 1014.9 |
| 20260502230122 | 75 | 306 | 7.0 | 24.0 | 0.00 | 0.00 | 0.00 | 45 | 1015.0 |
| 20260502225122 | 74 | 300 | 5.0 | 21.0 | 0.00 | 0.00 | 0.00 | 46 | 1015.3 |
| 20260502224122 | 74 | 310 | 8.0 | 24.0 | 0.00 | 0.00 | 0.00 | 47 | 1015.3 |
| 20260502223122 | 74 | 292 | 5.0 | 16.0 | 0.00 | 0.00 | 0.00 | 45 | 1015.5 |
| 20260502222122 | 74 | 308 | 6.0 | 19.0 | 0.00 | 0.00 | 0.00 | 47 | 1015.5 |
| 20260502221122 | 74 | 313 | 5.0 | 19.0 | 0.00 | 0.00 | 0.00 | 49 | 1015.8 |
| 20260502220122 | 72 | 309 | 9.0 | 24.0 | 0.00 | 0.00 | 0.00 | 49 | 1015.8 |
| 20260502215122 | 73 | 304 | 6.0 | 21.0 | 0.00 | 0.00 | 0.00 | 49 | 1015.9 |
| 20260502214122 | 72 | 311 | 6.0 | 24.0 | 0.00 | 0.00 | 0.00 | 52 | 1016.1 |
| 20260502213143 | 71 | 311 | 5.0 | 19.0 | 0.00 | 0.00 | 0.00 | 56 | 1016.3 |
| 20260502212122 | 71 | 297 | 3.0 | 11.0 | 0.00 | 0.00 | 0.00 | 56 | 1016.5 |
| 20260502211143 | 70 | 311 | 5.0 | 18.0 | 0.00 | 0.00 | 0.00 | 56 | 1016.5 |
| 20260502210122 | 70 | 318 | 4.0 | 18.0 | 0.00 | 0.00 | 0.00 | 58 | 1016.6 |
| 20260502205122 | 70 | 317 | 5.0 | 16.0 | 0.00 | 0.00 | 0.00 | 59 | 1016.8 |
| 20260502204122 | 71 | 324 | 6.0 | 18.0 | 0.00 | 0.00 | 0.00 | 57 | 1016.8 |
| 20260502203122 | 71 | 313 | 5.0 | 18.0 | 0.00 | 0.00 | 0.00 | 57 | 1016.8 |
| 20260502202122 | 71 | 323 | 3.0 | 13.0 | 0.00 | 0.00 | 0.00 | 57 | 1016.9 |
| 20260502201122 | 70 | 323 | 4.0 | 14.0 | 0.00 | 0.00 | 0.00 | 57 | 1017.1 |
| 20260502200124 | 70 | 334 | 5.0 | 19.0 | 0.00 | 0.00 | 0.00 | 60 | 1017.1 |
| 20260502195122 | 69 | 323 | 7.0 | 19.0 | 0.00 | 0.00 | 0.00 | 59 | 1017.3 |
| 20260502194122 | 70 | 336 | 5.0 | 16.0 | 0.00 | 0.00 | 0.00 | 61 | 1017.3 |
| 20260502193122 | 69 | 358 | 8.0 | 21.0 | 0.00 | 0.00 | 0.00 | 61 | 1017.4 |
| 20260502192122 | 69 | 351 | 6.0 | 18.0 | 0.00 | 0.00 | 0.00 | 62 | 1017.4 |
| 20260502191122 | 69 | 324 | 5.0 | 18.0 | 0.00 | 0.00 | 0.00 | 62 | 1017.4 |
| 20260502190144 | 69 | 350 | 6.0 | 18.0 | 0.00 | 0.00 | 0.00 | 62 | 1017.5 |
| 20260502185143 | 67 | 320 | 3.0 | 13.0 | 0.00 | 0.00 | 0.00 | 64 | 1017.5 |
| 20260502184144 | 67 | 341 | 4.0 | 14.0 | 0.00 | 0.00 | 0.00 | 65 | 1017.5 |
| 20260502183122 | 66 | 336 | 5.0 | 18.0 | 0.00 | 0.00 | 0.00 | 67 | 1017.6 |
| 20260502182123 | 65 | 327 | 4.0 | 13.0 | 0.00 | 0.00 | 0.00 | 66 | 1017.6 |
| 20260502181122 | 65 | 336 | 4.0 | 16.0 | 0.00 | 0.00 | 0.00 | 64 | 1017.7 |
| 20260502180143 | 65 | 318 | 4.0 | 13.0 | 0.00 | 0.00 | 0.00 | 64 | 1017.8 |